This demonstration page uses our WeatherBlox Daily Observations layout. Learn more.

Left ArrowRight Arrow

Hourly Observations for June 30, 2018

Temp ( °F °C ) Dew Point ( °F °C ) Humidity (%) Winds ( mph kmh ) Pressure ( in mb ) Visibility ( mi km ) Precip ( " mm )
12:57 am 00:57 Clear 81 27.2 68 20 65 65 S 9 15 29.70 1006 10 16 0.00 0.00
1:57 am 01:57 Clear 78 25.6 68 20 71 71 S 7 11 29.68 1005 10 16 0.00 0.00
2:57 am 02:57 Clear 77 25 67 19.4 71 71 Calm 29.75 1008 10 16 0.00 0.00
3:36 am 03:36 Clear 73 23 70 21 89 89 N 17 28 29.77 1008 10 16 0.00 0.00
3:57 am 03:57 Clear 72 22.2 68 20 87 87 NNE 20 31 29.76 1008 10 16 0.00 0.00
4:57 am 04:57 Mostly Clear 72 22.2 68 20 87 87 NNE 13 20 29.77 1008 10 16 0.00 0.00
5:57 am 05:57 Partly Cloudy 71 21.7 67 19.4 87 87 N 7 11 29.82 1010 10 16 0.00 0.00
6:32 am 06:32 Cloudy 72 22 64 18 78 78 NNW 8 13 29.83 1010 10 16 0.00 0.00
6:57 am 06:57 Partly Cloudy 71 21.7 67 19.4 87 87 NNE 9 15 29.82 1010 10 16 0.00 0.00
7:57 am 07:57 Sunny 74 23.3 68 20 82 82 NNE 16 26 29.82 1010 10 16 0.00 0.00
8:57 am 08:57 Sunny 74 23.3 67 19.4 79 79 N 17 28 29.83 1010 10 16 0.00 0.00
9:57 am 09:57 Sunny 76 24.4 68 20 77 77 NE 14 22 29.83 1010 10 16 0.00 0.00
10:57 am 10:57 Mostly Sunny 78 25.6 68 20 71 71 ENE 13 20 29.83 1010 10 16 0.00 0.00
11:57 am 11:57 Partly Cloudy 79 26.1 67 19.4 67 67 ENE 12 19 29.85 1011 10 16 0.00 0.00
12:10 pm 12:10 Mostly Cloudy 81 27 68 20 66 66 ENE 15 24 29.77 1008 10 16 0.00 0.00
12:57 pm 12:57 Mostly Cloudy 79 26.1 68 20 69 69 ENE 18 30 29.83 1010 10 16 0.00 0.00
1:57 pm 13:57 Cloudy 80 26.7 69 20.6 69 69 E 15 24 29.84 1011 10 16 0.00 0.00
2:57 pm 14:57 Mostly Cloudy 81 27.2 70 21.1 69 69 ENE 16 26 29.83 1010 10 16 0.00 0.00
3:42 pm 15:42 Cloudy with Nearby Thunderstorms 75 24 66 19 74 74 NE 16 26 29.80 1009 10 16 0.00 0.00
3:48 pm 15:48 Cloudy 75 24 66 19 74 74 NE 15 24 29.80 1009 10 16 0.00 0.00
3:57 pm 15:57 Cloudy with Thunderstorms 75 23.9 67 19.4 76 76 NE 12 19 29.86 1011 8 13 0.00 0.00
4:20 pm 16:20 Mostly Cloudy with Nearby Thunderstorms 73 23 68 20 83 83 NNE 12 19 29.80 1009 7 11 0.00 0.00
4:57 pm 16:57 Mostly Cloudy with Thunderstorms 72 22.2 68 20 87 87 NE 7 11 29.85 1011 10 16 0.00 0.00
5:25 pm 17:25 Cloudy with Thunderstorms 73 23 70 21 89 89 SSE 9 15 29.80 1009 8 13 0.00 0.00
5:46 pm 17:46 Mostly Cloudy 72 22 68 20 88 88 ENE 9 15 29.80 1009 10 16 0.01 0.25
5:57 pm 17:57 Partly Cloudy 73 22.8 68 20 84 84 NNE 9 15 29.80 1009 10 16 0.01 0.25
7:57 pm 19:57 Sunny 74 23.3 66 18.9 76 76 NE 18 30 29.76 1008 10 16 0.00 0.00
8:57 pm 20:57 Mostly Cloudy 72 22.2 66 18.9 82 82 NNE 14 22 29.77 1008 10 16 0.00 0.00
9:57 pm 21:57 Mostly Cloudy 70 21.1 64 17.8 82 82 NE 10 17 29.77 1008 10 16 0.00 0.00
10:11 pm 22:11 Mostly Cloudy with Nearby Thunderstorms 70 21 63 17 78 78 NW 36 57 29.80 1009 9 14 0.00 0.00
10:15 pm 22:15 Mostly Cloudy with Nearby Thunderstorms 66 19 63 17 88 88 NW 31 50 29.83 1010 3 4 0.00 0.00
10:18 pm 22:18 Mostly Cloudy with Nearby Thunderstorms 64 18 63 17 94 94 NNW 29 46 29.88 1012 1 2 0.06 1.52
10:20 pm 22:20 Cloudy with Thunderstorms 64 18 63 17 94 94 NNW 32 52 29.88 1012 1 1 0.11 2.79
10:30 pm 22:30 Mostly Cloudy with Thunderstorms 63 17 61 16 94 94 N 26 43 29.85 1011 1 1 0.54 13.72
10:35 pm 22:35 Cloudy with Thunderstorms 63 17 61 16 94 94 NNW 17 28 29.85 1011 1 1 0.00 0.00
10:39 pm 22:39 Cloudy with Thunderstorms 63 17 61 16 94 94 NNW 13 20 29.85 1011 1 2 0.00 0.00
10:43 pm 22:43 Cloudy with Mist and Fog 63 17 61 16 94 94 NNW 12 19 29.85 1011 2 2 0.00 0.00
10:51 pm 22:51 Cloudy with Thunderstorms 63 17 61 16 94 94 NNW 15 24 29.85 1011 3 5 0.00 0.00
10:57 pm 22:57 Cloudy with Thunderstorms 62 16.7 61 16.1 96 96 NNW 16 26 29.88 1012 3 5 0.86 21.84
11:15 pm 23:15 Cloudy with Thunderstorms 63 17 61 16 94 94 WNW 13 20 29.94 1014 4 6 0.00 0.00
11:32 pm 23:32 Cloudy with Thunderstorms 63 17 63 17 100 100 NW 17 28 29.91 1013 5 8 0.09 2.29
11:39 pm 23:39 Cloudy with Nearby Thunderstorms 63 17 63 17 100 100 NNW 18 30 29.91 1013 5 8 0.00 0.00
11:49 pm 23:49 Cloudy with Mist and Fog 63 17 63 17 100 100 NNW 17 28 29.91 1013 5 8 0.00 0.00
11:57 pm 23:57 Cloudy with Mist and Fog 63 17.2 62 16.7 97 97 N 17 28 29.93 1014 5 8 0.16 4.06

Powered by AerisWeather